{"data":{"norad_id":49287,"intl_designator":"2021-090J","name":"ONEWEB-0361","alt_names":[],"object_type":"PAYLOAD","status":"ACTIVE","operator":null,"country":"UK","launch_date":"2021-10-14","launch_site_code":"VOSTO","launch_vehicle":null,"mission":null,"orbit_class":"UNKNOWN","rcs_meters":null,"size_class":null,"mass_kg":null,"dimensions":null,"purposes":["comms"],"wikipedia_slug":null,"has_3d_model":false,"image_url":null,"decayed_at":null,"tle_current":{"epoch":"2026-05-25T02:51:01.823904Z","epoch_age_seconds":78989,"freshness":"FRESH","line1":"1 49287U 21090J   26145.11877111  .00000063  00000+0  12266-3 0  9995","line2":"2 49287  87.9176 279.0380 0002000 102.0201 258.1156 13.20773845227253","mean_motion":13.20773845,"eccentricity":0.0002,"inclination_deg":87.9176,"raan_deg":279.038,"arg_perigee_deg":102.0201,"mean_anomaly_deg":258.1156,"bstar":0.00012266,"rev_number":22725,"period_min":109.02699242958,"perigee_km":1180.2536380447,"apogee_km":1183.2775990921,"semimajor_km":7559.9026185684,"source":"CELESTRAK","updated_at":"2026-05-25T13:38:22.520783Z"}}}